Time,TemperatureF,DewpointF,PressureIn,WindDirection,WindDirectionDegrees,WindSpeedMPH,WindSpeedGustMPH,Humidity,HourlyPrecipIn,Conditions,Clouds,dailyrainin,SoftwareType,DateUTC
2013-02-28 00:09:00,39.3,36.0,30.58,West,276,0.0,1.0,86,0.00,,,0.00,weatherlink.com 1.10,2013-02-28 00:09:00,
2013-02-28 00:24:00,39.5,36.0,30.58,NNE,17,0.0,1.0,87,0.00,,,0.00,weatherlink.com 1.10,2013-02-28 00:24:00,
2013-02-28 00:39:00,39.7,36.0,30.58,North,349,0.0,0.0,86,0.00,,,0.00,weatherlink.com 1.10,2013-02-28 00:39:00,
2013-02-28 00:54:00,40.0,36.0,30.58,NNE,29,0.0,3.0,86,0.00,,,0.00,weatherlink.com 1.10,2013-02-28 00:54:00,
2013-02-28 01:10:00,40.0,36.0,30.57,NNW,335,2.0,5.0,86,0.00,,,0.00,weatherlink.com 1.10,2013-02-28 01:10:00,
2013-02-28 01:25:00,40.0,36.0,30.57,NNW,348,0.0,0.0,86,0.00,,,0.00,weatherlink.com 1.10,2013-02-28 01:25:00,
2013-02-28 01:40:00,39.9,36.0,30.57,NNE,27,0.0,2.0,86,0.00,,,0.00,weatherlink.com 1.10,2013-02-28 01:40:00,
2013-02-28 01:55:00,39.9,36.0,30.57,NW,321,1.0,2.0,86,0.00,,,0.00,weatherlink.com 1.10,2013-02-28 01:55:00,
2013-02-28 02:10:00,39.7,36.0,30.56,North,5,0.0,3.0,86,0.00,,,0.00,weatherlink.com 1.10,2013-02-28 02:10:00,
2013-02-28 02:25:00,39.6,36.0,30.55,NE,51,0.0,-999.0,86,-99.99,,,0.00,weatherlink.com 1.10,2013-02-28 02:25:00,
2013-02-28 02:40:00,39.5,36.0,30.55,ENE,58,0.0,4.0,86,0.00,,,0.00,weatherlink.com 1.10,2013-02-28 02:40:00,
2013-02-28 02:55:00,39.5,36.0,30.55,North,352,0.0,4.0,87,0.00,,,0.00,weatherlink.com 1.10,2013-02-28 02:55:00,
2013-02-28 03:10:00,39.5,36.0,30.55,NW,309,1.0,3.0,87,0.00,,,0.00,weatherlink.com 1.10,2013-02-28 03:10:00,
2013-02-28 03:25:00,39.4,36.0,30.54,NNW,345,0.0,2.0,87,0.00,,,0.00,weatherlink.com 1.10,2013-02-28 03:25:00,
2013-02-28 03:40:00,39.5,36.0,30.54,North,349,0.0,2.0,87,0.00,,,0.00,weatherlink.com 1.10,2013-02-28 03:40:00,
2013-02-28 03:55:00,39.5,36.0,30.54,NNE,29,0.0,2.0,88,0.00,,,0.00,weatherlink.com 1.10,2013-02-28 03:55:00,
2013-02-28 04:25:00,39.1,36.0,30.53,NW,309,1.0,3.0,87,0.00,,,0.00,weatherlink.com 1.10,2013-02-28 04:25:00,
2013-02-28 04:40:00,38.9,35.0,30.53,NE,40,0.0,4.0,87,0.00,,,0.00,weatherlink.com 1.10,2013-02-28 04:40:00,
2013-02-28 04:55:00,38.7,36.0,30.53,SW,225,2.0,3.0,88,0.00,,,0.00,weatherlink.com 1.10,2013-02-28 04:55:00,
2013-02-28 05:10:00,38.7,36.0,30.53,NNE,17,1.0,4.0,88,0.00,,,0.00,weatherlink.com 1.10,2013-02-28 05:10:00,
2013-02-28 05:25:00,38.3,35.0,30.53,NNW,330,3.0,4.0,87,0.00,,,0.00,weatherlink.com 1.10,2013-02-28 05:25:00,
2013-02-28 05:40:00,37.9,35.0,30.53,NNW,341,2.0,4.0,88,0.00,,,0.00,weatherlink.com 1.10,2013-02-28 05:40:00,
2013-02-28 05:55:00,37.8,35.0,30.53,NW,309,0.0,2.0,88,0.00,,,0.00,weatherlink.com 1.10,2013-02-28 05:55:00,
2013-02-28 06:10:00,37.3,34.0,30.53,NNW,343,1.0,4.0,88,0.00,,,0.00,weatherlink.com 1.10,2013-02-28 06:10:00,
2013-02-28 06:25:00,37.1,34.0,30.53,West,271,0.0,4.0,88,0.00,,,0.00,weatherlink.com 1.10,2013-02-28 06:25:00,
2013-02-28 06:40:00,37.2,34.0,30.53,West,274,0.0,2.0,89,0.00,,,0.00,weatherlink.com 1.10,2013-02-28 06:40:00,
2013-02-28 06:55:00,37.4,35.0,30.53,WSW,247,0.0,2.0,89,0.00,,,0.00,weatherlink.com 1.10,2013-02-28 06:55:00,
2013-02-28 07:10:00,37.6,35.0,30.53,WNW,284,0.0,1.0,89,0.00,,,0.00,weatherlink.com 1.10,2013-02-28 07:10:00,
2013-02-28 07:25:00,37.8,35.0,30.53,West,278,0.0,2.0,89,0.00,,,0.00,weatherlink.com 1.10,2013-02-28 07:25:00,
2013-02-28 07:40:00,38.2,35.0,30.54,NNW,338,1.0,5.0,89,0.00,,,0.00,weatherlink.com 1.10,2013-02-28 07:40:00,
2013-02-28 07:55:00,37.9,35.0,30.54,NNE,15,0.0,5.0,89,0.00,,,0.00,weatherlink.com 1.10,2013-02-28 07:55:00,
2013-02-28 08:10:00,37.6,35.0,30.55,NW,314,2.0,4.0,89,0.00,,,0.00,weatherlink.com 1.10,2013-02-28 08:10:00,
2013-02-28 08:25:00,37.7,35.0,30.54,WNW,297,1.0,4.0,89,0.00,,,0.00,weatherlink.com 1.10,2013-02-28 08:25:00,
2013-02-28 08:40:00,37.7,35.0,30.54,NW,320,0.0,3.0,89,0.00,,,0.00,weatherlink.com 1.10,2013-02-28 08:40:00,
2013-02-28 08:55:00,38.1,35.0,30.54,North,5,1.0,3.0,89,0.00,,,0.00,weatherlink.com 1.10,2013-02-28 08:55:00,
2013-02-28 09:10:00,38.4,36.0,30.55,West,263,0.0,2.0,89,0.00,,,0.00,weatherlink.com 1.10,2013-02-28 09:10:00,
2013-02-28 09:25:00,38.9,36.0,30.54,NW,315,2.0,4.0,89,0.00,,,0.00,weatherlink.com 1.10,2013-02-28 09:25:00,
2013-02-28 09:40:00,39.2,36.0,30.54,North,360,0.0,2.0,88,0.00,,,0.00,weatherlink.com 1.10,2013-02-28 09:40:00,
2013-02-28 09:55:00,39.4,36.0,30.54,West,278,0.0,2.0,88,0.00,,,0.00,weatherlink.com 1.10,2013-02-28 09:55:00,
2013-02-28 10:10:00,39.8,37.0,30.54,West,277,0.0,1.0,88,0.00,,,0.00,weatherlink.com 1.10,2013-02-28 10:10:00,
2013-02-28 10:26:00,39.9,37.0,30.53,NNW,335,1.0,4.0,88,0.00,,,0.00,weatherlink.com 1.10,2013-02-28 10:26:00,
2013-02-28 10:41:00,40.0,37.0,30.53,NNW,345,1.0,2.0,87,0.00,,,0.00,weatherlink.com 1.10,2013-02-28 10:41:00,
2013-02-28 10:56:00,40.1,37.0,30.53,WNW,300,2.0,2.0,88,0.00,,,0.00,weatherlink.com 1.10,2013-02-28 10:56:00,
2013-02-28 11:11:00,40.6,37.0,30.53,NW,308,0.0,1.0,88,0.00,,,0.00,weatherlink.com 1.10,2013-02-28 11:11:00,
2013-02-28 11:26:00,41.1,38.0,30.53,WNW,301,0.0,0.0,87,0.00,,,0.00,weatherlink.com 1.10,2013-02-28 11:26:00,
2013-02-28 11:41:00,41.4,38.0,30.52,NW,320,0.0,1.0,87,0.00,,,0.00,weatherlink.com 1.10,2013-02-28 11:41:00,
2013-02-28 11:56:00,42.1,39.0,30.52,WNW,285,0.0,2.0,87,0.00,,,0.00,weatherlink.com 1.10,2013-02-28 11:56:00,
2013-02-28 12:11:00,42.4,39.0,30.51,North,5,1.0,3.0,87,0.00,,,0.00,weatherlink.com 1.10,2013-02-28 12:11:00,
2013-02-28 12:26:00,42.8,39.0,30.51,NE,45,0.0,4.0,86,0.00,,,0.00,weatherlink.com 1.10,2013-02-28 12:26:00,
2013-02-28 12:41:00,43.0,39.0,30.50,NNW,341,0.0,3.0,86,0.00,,,0.00,weatherlink.com 1.10,2013-02-28 12:41:00,
2013-02-28 12:56:00,43.4,40.0,30.50,NE,56,1.0,2.0,86,0.00,,,0.00,weatherlink.com 1.10,2013-02-28 12:56:00,
2013-02-28 13:11:00,43.7,40.0,30.50,North,11,0.0,4.0,85,0.00,,,0.00,weatherlink.com 1.10,2013-02-28 13:11:00,
2013-02-28 13:26:00,43.9,39.0,30.50,North,352,0.0,4.0,84,0.00,,,0.00,weatherlink.com 1.10,2013-02-28 13:26:00,
2013-02-28 13:41:00,44.1,40.0,30.50,ENE,70,0.0,2.0,84,0.00,,,0.00,weatherlink.com 1.10,2013-02-28 13:41:00,
2013-02-28 13:56:00,44.4,40.0,30.49,East,82,0.0,7.0,83,0.00,,,0.00,weatherlink.com 1.10,2013-02-28 13:56:00,
2013-02-28 14:11:00,44.5,40.0,30.49,NE,36,1.0,5.0,83,0.00,,,0.00,weatherlink.com 1.10,2013-02-28 14:11:00,
2013-02-28 14:26:00,44.4,40.0,30.49,ESE,107,1.0,6.0,83,0.00,,,0.00,weatherlink.com 1.10,2013-02-28 14:26:00,
2013-02-28 14:41:00,44.4,40.0,30.48,NE,37,1.0,6.0,83,0.00,,,0.00,weatherlink.com 1.10,2013-02-28 14:41:00,
2013-02-28 14:56:00,44.7,39.0,30.48,ENE,57,4.0,5.0,81,0.00,,,0.00,weatherlink.com 1.10,2013-02-28 14:56:00,
2013-02-28 15:11:00,44.7,39.0,30.48,North,356,2.0,6.0,81,0.00,,,0.00,weatherlink.com 1.10,2013-02-28 15:11:00,
2013-02-28 15:26:00,44.7,39.0,30.48,North,356,2.0,6.0,81,0.00,,,0.00,weatherlink.com 1.10,2013-02-28 15:26:00,
2013-02-28 15:41:00,44.9,39.0,30.47,WNW,302,0.0,4.0,81,0.00,,,0.00,weatherlink.com 1.10,2013-02-28 15:41:00,
2013-02-28 15:56:00,45.0,40.0,30.48,North,351,2.0,5.0,81,0.00,,,0.00,weatherlink.com 1.10,2013-02-28 15:56:00,
2013-02-28 16:11:00,44.8,40.0,30.47,West,276,0.0,5.0,82,0.00,,,0.00,weatherlink.com 1.10,2013-02-28 16:11:00,
2013-02-28 16:26:00,44.9,40.0,30.47,NE,44,0.0,2.0,82,0.00,,,0.00,weatherlink.com 1.10,2013-02-28 16:26:00,
2013-02-28 16:41:00,44.9,40.0,30.47,North,351,0.0,4.0,82,0.00,,,0.00,weatherlink.com 1.10,2013-02-28 16:41:00,
2013-02-28 16:56:00,44.7,40.0,30.47,North,349,0.0,2.0,83,0.00,,,0.00,weatherlink.com 1.10,2013-02-28 16:56:00,
2013-02-28 17:11:00,44.6,40.0,30.47,NW,318,0.0,3.0,83,0.00,,,0.00,weatherlink.com 1.10,2013-02-28 17:11:00,
2013-02-28 17:26:00,44.3,39.0,30.47,WNW,287,0.0,1.0,83,0.00,,,0.00,weatherlink.com 1.10,2013-02-28 17:26:00,
2013-02-28 17:41:00,43.8,39.0,30.47,WNW,287,0.0,0.0,84,0.00,,,0.00,weatherlink.com 1.10,2013-02-28 17:41:00,
2013-02-28 17:56:00,43.3,39.0,30.47,West,277,0.0,0.0,85,0.00,,,0.00,weatherlink.com 1.10,2013-02-28 17:56:00,
2013-02-28 18:11:00,42.7,39.0,30.47,West,277,0.0,0.0,86,0.00,,,0.00,weatherlink.com 1.10,2013-02-28 18:11:00,
2013-02-28 18:26:00,42.2,39.0,30.46,West,278,0.0,0.0,87,0.00,,,0.00,weatherlink.com 1.10,2013-02-28 18:26:00,
2013-02-28 18:41:00,41.5,38.0,30.46,West,277,0.0,0.0,87,0.00,,,0.00,weatherlink.com 1.10,2013-02-28 18:41:00,
2013-02-28 18:56:00,41.1,38.0,30.47,West,277,0.0,0.0,88,0.00,,,0.00,weatherlink.com 1.10,2013-02-28 18:56:00,
2013-02-28 19:11:00,40.9,38.0,30.47,West,277,0.0,0.0,88,0.00,,,0.00,weatherlink.com 1.10,2013-02-28 19:11:00,
2013-02-28 19:26:00,40.3,37.0,30.47,West,278,0.0,0.0,89,0.00,,,0.00,weatherlink.com 1.10,2013-02-28 19:26:00,
2013-02-28 19:41:00,40.2,37.0,30.47,NW,309,0.0,0.0,89,0.00,,,0.00,weatherlink.com 1.10,2013-02-28 19:41:00,
2013-02-28 19:56:00,39.9,37.0,30.47,West,270,0.0,0.0,90,0.00,,,0.00,weatherlink.com 1.10,2013-02-28 19:56:00,
2013-02-28 20:11:00,39.4,37.0,30.47,West,270,0.0,0.0,90,0.00,,,0.00,weatherlink.com 1.10,2013-02-28 20:11:00,
2013-02-28 20:26:00,38.5,36.0,30.47,West,270,0.0,0.0,90,0.00,,,0.00,weatherlink.com 1.10,2013-02-28 20:26:00,
2013-02-28 20:41:00,38.3,36.0,30.47,West,270,0.0,0.0,90,0.00,,,0.00,weatherlink.com 1.10,2013-02-28 20:41:00,
2013-02-28 20:56:00,38.3,36.0,30.48,West,270,0.0,0.0,91,0.00,,,0.00,weatherlink.com 1.10,2013-02-28 20:56:00,
2013-02-28 21:12:00,37.7,35.0,30.48,West,270,0.0,0.0,91,0.00,,,0.00,weatherlink.com 1.10,2013-02-28 21:12:00,
2013-02-28 21:27:00,37.3,35.0,30.48,West,270,0.0,0.0,91,0.00,,,0.00,weatherlink.com 1.10,2013-02-28 21:27:00,
2013-02-28 21:42:00,37.3,35.0,30.48,West,270,0.0,0.0,92,0.00,,,0.00,weatherlink.com 1.10,2013-02-28 21:42:00,
2013-02-28 21:57:00,37.2,35.0,30.48,West,270,0.0,0.0,92,0.00,,,0.00,weatherlink.com 1.10,2013-02-28 21:57:00,
2013-02-28 22:12:00,36.8,35.0,30.48,West,270,0.0,0.0,92,0.00,,,0.00,weatherlink.com 1.10,2013-02-28 22:12:00,
2013-02-28 22:27:00,36.0,34.0,30.48,West,270,0.0,0.0,92,0.00,,,0.00,weatherlink.com 1.10,2013-02-28 22:27:00,
2013-02-28 22:42:00,36.2,34.0,30.48,West,270,0.0,0.0,93,0.00,,,0.00,weatherlink.com 1.10,2013-02-28 22:42:00,
2013-02-28 22:57:00,36.1,34.0,30.48,West,270,0.0,0.0,93,0.00,,,0.00,weatherlink.com 1.10,2013-02-28 22:57:00,
2013-02-28 23:12:00,37.5,36.0,30.48,East,82,0.0,0.0,94,0.00,,,0.00,weatherlink.com 1.10,2013-02-28 23:12:00,
2013-02-28 23:27:00,41.1,40.0,30.48,NE,53,0.0,5.0,95,0.00,,,0.00,weatherlink.com 1.10,2013-02-28 23:27:00,
2013-02-28 23:42:00,41.9,40.0,30.48,NE,53,0.0,7.0,94,0.00,,,0.00,weatherlink.com 1.10,2013-02-28 23:42:00,
2013-02-28 23:57:00,42.2,40.0,30.48,ENE,68,2.0,5.0,93,0.00,,,0.00,weatherlink.com 1.10,2013-02-28 23:57:00,